When you browse on this site, cookies collect data to enhance your experience and personalize the content and advertising you see.
Visit our Privacy Policy to learn more. By continuing to use the site, you agree to this use of cookies and data.
  • In Italy
  • List of Countries
  • For 7 days
  • Water Temperature
  • Weather Map
  • Weather Widgets
  • user-avatar
    Login

    Hourly Weather Nesebyr

    Today, 17 August, Saturday

    Time Temperature Precipitation Wind Pressure Humidity
    00:00 +20°C° 0 mm 1 mps 758 mmHg 86%
    01:00 +19°C° 0 mm 1 mps 758 mmHg 87%
    02:00 +20°C° 0 mm 1 mps 758 mmHg 87%
    03:00 +20°C° 0 mm 1 mps 758 mmHg 88%
    04:00 +19°C° 0 mm 1 mps 758 mmHg 88%
    05:00 +19°C° 0 mm 1 mps 758 mmHg 88%
    06:00 +20°C° 0.1 mm 2 mps 758 mmHg 79%
    07:00 +23°C° 0.1 mm 2 mps 758 mmHg 70%
    08:00 +24°C° 0.1 mm 2 mps 759 mmHg 61%
    09:00 +26°C° 0.2 mm 3 mps 759 mmHg 54%
    10:00 +27°C° 0.2 mm 3 mps 759 mmHg 48%
    11:00 +28°C° 0.2 mm 4 mps 759 mmHg 42%
    12:00 +28°C° 0.1 mm 4 mps 759 mmHg 44%
    13:00 +27°C° 0.1 mm 4 mps 759 mmHg 46%
    14:00 +27°C° 0.1 mm 5 mps 758 mmHg 48%
    15:00 +27°C° 0.1 mm 4 mps 758 mmHg 49%
    16:00 +27°C° 0.1 mm 3 mps 758 mmHg 50%
    17:00 +26°C° 0.1 mm 3 mps 758 mmHg 51%
    18:00 +25°C° 0 mm 2 mps 758 mmHg 58%
    19:00 +23°C° 0 mm 2 mps 759 mmHg 64%
    20:00 +21°C° 0 mm 1 mps 759 mmHg 70%
    21:00 +21°C° 0 mm 1 mps 759 mmHg 71%
    22:00 +20°C° 0 mm 1 mps 759 mmHg 72%
    23:00 +20°C° 0 mm 1 mps 759 mmHg 74%

    Tomorrow, 18 August, Sunday

    Time Temperature Precipitation Wind Pressure Humidity
    00:00 +20°C° 0 mm 1 mps 759 mmHg 75%
    01:00 +19°C° 0 mm 1 mps 759 mmHg 76%
    02:00 +19°C° 0 mm 1 mps 759 mmHg 77%
    03:00 +19°C° 0 mm 1 mps 759 mmHg 77%
    04:00 +18°C° 0 mm 2 mps 759 mmHg 77%
    05:00 +18°C° 0 mm 2 mps 759 mmHg 77%
    06:00 +20°C° 0 mm 2 mps 759 mmHg 67%
    07:00 +23°C° 0 mm 2 mps 760 mmHg 57%
    08:00 +25°C° 0 mm 2 mps 760 mmHg 47%
    09:00 +27°C° 0 mm 3 mps 760 mmHg 41%
    10:00 +29°C° 0 mm 3 mps 760 mmHg 35%
    11:00 +30°C° 0 mm 4 mps 760 mmHg 30%
    12:00 +32°C° 0 mm 4 mps 760 mmHg 29%
    13:00 +32°C° 0 mm 5 mps 760 mmHg 28%
    14:00 +33°C° 0 mm 5 mps 760 mmHg 27%
    15:00 +32°C° 0 mm 5 mps 759 mmHg 30%
    16:00 +30°C° 0 mm 5 mps 759 mmHg 33%
    17:00 +29°C° 0 mm 5 mps 759 mmHg 36%
    18:00 +26°C° 0 mm 4 mps 760 mmHg 45%
    19:00 +24°C° 0 mm 3 mps 760 mmHg 54%
    20:00 +21°C° 0 mm 3 mps 760 mmHg 63%
    21:00 +20°C° 0 mm 2 mps 760 mmHg 67%
    22:00 +20°C° 0 mm 1 mps 761 mmHg 70%
    23:00 +20°C° 0 mm 1 mps 761 mmHg 74%

    Day after tomorrow, 19 August, Monday

    Time Temperature Precipitation Wind Pressure Humidity
    00:00 +20°C° 0 mm 1 mps 761 mmHg 74%
    01:00 +19°C° 0 mm 1 mps 761 mmHg 75%
    02:00 +19°C° 0 mm 1 mps 760 mmHg 76%
    03:00 +19°C° 0 mm 1 mps 761 mmHg 77%
    04:00 +19°C° 0 mm 1 mps 761 mmHg 77%
    05:00 +19°C° 0 mm 1 mps 761 mmHg 78%
    06:00 +21°C° 0 mm 1 mps 761 mmHg 68%
    07:00 +23°C° 0 mm 1 mps 761 mmHg 58%
    08:00 +26°C° 0 mm 1 mps 761 mmHg 48%
    09:00 +27°C° 0 mm 2 mps 761 mmHg 43%
    10:00 +29°C° 0 mm 3 mps 761 mmHg 38%
    11:00 +32°C° 0 mm 4 mps 761 mmHg 33%
    12:00 +32°C° 0 mm 5 mps 761 mmHg 32%
    13:00 +32°C° 0 mm 5 mps 761 mmHg 32%
    14:00 +33°C° 0 mm 5 mps 761 mmHg 31%
    15:00 +32°C° 0 mm 5 mps 761 mmHg 32%
    16:00 +30°C° 0 mm 5 mps 761 mmHg 34%
    17:00 +30°C° 0 mm 5 mps 760 mmHg 35%
    18:00 +27°C° 0 mm 4 mps 761 mmHg 47%
    19:00 +24°C° 0 mm 3 mps 761 mmHg 59%
    20:00 +21°C° 0 mm 2 mps 761 mmHg 71%
    21:00 +20°C° 0 mm 2 mps 761 mmHg 74%
    22:00 +21°C° 0 mm 1 mps 762 mmHg 78%
    23:00 +20°C° 0 mm 1 mps 762 mmHg 81%

    20 August, Tuesday

    Time Temperature Precipitation Wind Pressure Humidity
    00:00 +20°C° 0 mm 1 mps 762 mmHg 82%
    01:00 +20°C° 0 mm 1 mps 762 mmHg 83%
    02:00 +20°C° 0 mm 1 mps 761 mmHg 84%
    03:00 +18°C° 0 mm 2 mps 761 mmHg 84%
    04:00 +18°C° 0 mm 2 mps 761 mmHg 85%
    05:00 +18°C° 0 mm 2 mps 761 mmHg 85%
    06:00 +20°C° 0 mm 2 mps 762 mmHg 78%
    07:00 +22°C° 0 mm 3 mps 762 mmHg 72%
    08:00 +25°C° 0 mm 4 mps 762 mmHg 65%
    09:00 +27°C° 0 mm 4 mps 762 mmHg 58%
    10:00 +28°C° 0 mm 5 mps 762 mmHg 50%
    11:00 +30°C° 0 mm 5 mps 762 mmHg 43%
    12:00 +30°C° 0 mm 6 mps 762 mmHg 42%
    13:00 +32°C° 0 mm 6 mps 761 mmHg 42%
    14:00 +32°C° 0 mm 6 mps 761 mmHg 41%
    15:00 +32°C° 0 mm 6 mps 761 mmHg 43%
    16:00 +30°C° 0 mm 5 mps 761 mmHg 44%
    17:00 +29°C° 0 mm 5 mps 761 mmHg 46%
    18:00 +27°C° 0 mm 4 mps 761 mmHg 57%
    19:00 +25°C° 0 mm 3 mps 761 mmHg 68%
    20:00 +21°C° 0 mm 2 mps 761 mmHg 79%
    21:00 +21°C° 0 mm 2 mps 761 mmHg 80%
    22:00 +21°C° 0 mm 2 mps 761 mmHg 82%
    23:00 +20°C° 0 mm 2 mps 761 mmHg 83%

    21 August, Wednesday

    Time Temperature Precipitation Wind Pressure Humidity
    00:00 +20°C° 0 mm 2 mps 761 mmHg 83%
    01:00 +20°C° 0 mm 1 mps 761 mmHg 83%
    02:00 +20°C° 0 mm 1 mps 760 mmHg 83%
    03:00 +20°C° 0 mm 1 mps 760 mmHg 82%
    04:00 +20°C° 0 mm 1 mps 760 mmHg 80%
    05:00 +19°C° 0 mm 1 mps 760 mmHg 79%
    06:00 +21°C° 0 mm 2 mps 760 mmHg 68%
    07:00 +24°C° 0 mm 2 mps 760 mmHg 58%
    08:00 +26°C° 0 mm 2 mps 760 mmHg 47%
    09:00 +28°C° 0 mm 3 mps 760 mmHg 42%
    10:00 +31°C° 0 mm 3 mps 760 mmHg 37%
    11:00 +34°C° 0 mm 3 mps 760 mmHg 32%
    12:00 +35°C° 0 mm 4 mps 760 mmHg 32%
    13:00 +35°C° 0 mm 4 mps 759 mmHg 31%
    14:00 +36°C° 0 mm 5 mps 759 mmHg 30%
    15:00 +35°C° 0 mm 5 mps 759 mmHg 34%
    16:00 +34°C° 0 mm 4 mps 758 mmHg 38%
    17:00 +33°C° 0 mm 4 mps 758 mmHg 42%
    18:00 +30°C° 0 mm 3 mps 758 mmHg 50%
    19:00 +27°C° 0 mm 2 mps 758 mmHg 58%
    20:00 +25°C° 0 mm 1 mps 758 mmHg 67%
    21:00 +25°C° 0 mm 1 mps 759 mmHg 67%
    22:00 +24°C° 0 mm 1 mps 759 mmHg 66%
    23:00 +24°C° 0 mm 1 mps 759 mmHg 66%

    22 August, Thursday

    Time Temperature Precipitation Wind Pressure Humidity
    00:00 +24°C° 0.1 mm 1 mps 759 mmHg 66%
    01:00 +24°C° 0.1 mm 1 mps 759 mmHg 65%
    02:00 +24°C° 0.1 mm 2 mps 758 mmHg 65%
    03:00 +24°C° 0.2 mm 2 mps 759 mmHg 66%
    04:00 +24°C° 0.2 mm 2 mps 759 mmHg 68%
    05:00 +22°C° 0.2 mm 3 mps 759 mmHg 69%
    06:00 +24°C° 0.3 mm 3 mps 759 mmHg 67%
    07:00 +25°C° 0.3 mm 4 mps 759 mmHg 65%
    08:00 +26°C° 0.3 mm 5 mps 760 mmHg 64%
    09:00 +29°C° 0 mm 5 mps 760 mmHg 55%
    10:00 +32°C° 0 mm 6 mps 760 mmHg 46%
    11:00 +34°C° 0 mm 6 mps 760 mmHg 37%
    12:00 +35°C° 0 mm 6 mps 760 mmHg 36%
    13:00 +35°C° 0 mm 6 mps 760 mmHg 34%
    14:00 +36°C° 0 mm 6 mps 760 mmHg 33%
    15:00 +35°C° 0 mm 6 mps 759 mmHg 35%
    16:00 +35°C° 0 mm 5 mps 759 mmHg 37%
    17:00 +34°C° 0 mm 5 mps 759 mmHg 39%
    18:00 +32°C° 0 mm 4 mps 759 mmHg 46%
    19:00 +29°C° 0 mm 3 mps 760 mmHg 54%
    20:00 +26°C° 0 mm 2 mps 760 mmHg 61%
    21:00 +26°C° 0 mm 3 mps 760 mmHg 57%
    22:00 +26°C° 0 mm 4 mps 760 mmHg 53%
    23:00 +26°C° 0 mm 5 mps 760 mmHg 49%
    Show more